STARLINK-11210 [DTC] (60116 NORAD) Tracking and Keplerian Element Data

This shows tracking and keplerian element data for the satellite.

Feedback or suggestion? Click here.




ElementValue
Catalog60116
NameSTARLINK-11210 [DTC]
Epoch Orbit1744
Epoch Day286.84787014
Epoch Year2024
RAAN229.5388
Inclination53.1564
Eccentricity0.000153
Argument of Perigee108.1991
Mean Anonmoly251.9193
Mean Motion15.69735338
Decay Rate0.00049687
L11 60116U 24118D 24286.84787014 .00049687 00000+0 41208-3 0 9992
L22 60116 53.1564 229.5388 0001530 108.1991 251.9193 15.69735338 17441



Live tracking and technical data element details for STARLINK-11210 [DTC] (NORAD 60116). STARLINK-11210 [DTC] can be tracked NOW for your location showing map with azimuth and elevation plus other details from your city location.







IsCatalogInMostPopularTable: catalog: 60116, numindb: 8
Update: records affected: 1



GetName: 60116 STARLINK-11210 [DTC]

Hit Count: updated at: Thu, 23 Jan 2025 17:44:07 GMT